OE5WWO Weather Reports


time (UTC)temp
F
wind
direction
speed
knots
gust
knots
rain 1hr
in
rain 24hr
in
rain mn
in
humidity
%
barometer
mb
20260906010105 58 0 0.0 1.7 0.00 0.27 0.00 85 1025.9
20260906005539 58 0 0.0 0.9 0.00 0.27 0.00 86 1025.8
20260906005040 58 0 0.0 1.7 0.00 0.27 0.00 85 1025.8
20260906004600 58 0 0.0 1.7 0.00 0.27 0.00 86 1025.8
20260906004039 59 0 0.0 0.9 0.00 0.27 0.00 86 1025.8
20260906003539 59 0 0.0 0.9 0.00 0.27 0.00 86 1025.7
20260906003106 59 0 0.0 0.0 0.00 0.27 0.00 86 1025.8
20260906002540 59 0 0.0 0.0 0.00 0.27 0.00 87 1025.7
20260906002042 59 0 0.0 0.0 0.00 0.27 0.00 87 1025.7
20260906001603 59 0 0.0 0.0 0.00 0.27 0.00 87 1025.6
20260906001040 60 0 0.0 0.0 0.00 0.27 0.00 86 1025.6
20260906000542 60 0 0.0 0.9 0.00 0.27 0.00 86 1025.6
20260906000101 60 0 0.0 0.9 0.00 0.27 0.00 86 1025.6
20260905235540 60 0 0.0 0.0 0.00 0.27 0.00 86 1025.6
20260905235040 60 0 0.0 0.0 0.00 0.27 0.00 85 1025.5
20260905234613 60 0 0.0 0.0 0.00 0.27 0.00 85 1025.6
20260905234039 60 0 0.0 0.0 0.00 0.27 0.00 85 1025.5
20260905233540 60 0 0.0 0.0 0.00 0.27 0.00 85 1025.5
20260905233103 61 0 0.0 0.0 0.00 0.27 0.00 85 1025.4
20260905232539 61 0 0.0 0.0 0.00 0.27 0.00 85 1025.3
20260905232039 61 0 0.0 0.0 0.00 0.27 0.00 84 1025.3
20260905231556 61 0 0.0 0.0 0.00 0.27 0.00 84 1025.3
20260905231039 61 0 0.0 0.0 0.00 0.27 0.00 84 1025.3
20260905230540 61 0 0.0 0.0 0.00 0.27 0.00 84 1025.3
20260905225539 61 0 0.0 0.9 0.00 0.27 0.00 83 1025.2
20260905225039 61 0 0.0 0.0 0.00 0.27 0.00 83 1025.2
20260905224610 62 0 0.0 0.0 0.00 0.27 0.00 83 1025.0
20260905224039 62 0 0.0 0.0 0.00 0.27 0.00 83 1025.0
20260905223539 62 0 0.0 0.0 0.00 0.27 0.00 83 1024.9
20260905223056 62 0 0.0 0.0 0.00 0.27 0.00 81 1024.8
20260905222541 62 0 0.0 0.0 0.00 0.27 0.00 82 1024.8
20260905222039 62 0 0.0 0.0 0.00 0.27 0.00 81 1024.8
20260905221601 63 0 0.0 0.0 0.00 0.27 0.00 80 1024.7
20260905221040 63 0 0.0 0.0 0.00 0.27 0.00 80 1024.7
20260905220542 63 0 0.0 0.0 0.00 0.27 0.00 80 1024.6
20260905220117 63 0 0.0 0.0 0.00 0.27 0.00 79 1024.5
20260905215540 64 0 0.0 0.0 0.00 0.27 0.27 79 1024.5
20260905215041 64 0 0.0 0.0 0.00 0.27 0.27 78 1024.5
20260905214611 64 0 0.0 0.0 0.00 0.27 0.27 78 1024.4
20260905214039 64 0 0.0 0.9 0.00 0.27 0.27 77 1024.3
20260905213540 64 0 0.0 1.7 0.00 0.27 0.27 77 1024.3
20260905213114 65 0 0.0 2.6 0.00 0.27 0.27 77 1024.2
20260905212539 65 0 0.0 2.6 0.00 0.27 0.27 77 1024.1
20260905212040 65 0 0.0 1.7 0.00 0.27 0.27 76 1024.0
20260905211603 65 345 0.0 1.7 0.00 0.27 0.27 76 1024.0
20260905211040 65 0 0.0 0.9 0.00 0.27 0.27 75 1024.0
20260905210540 66 0 0.0 0.9 0.00 0.27 0.27 75 1024.0
20260905210059 66 0 0.0 0.9 0.00 0.27 0.27 74 1023.9
20260905205539 66 0 0.0 0.0 0.00 0.27 0.27 74 1023.9
20260905205039 66 0 0.0 1.7 0.00 0.27 0.27 73 1024.0
20260905204556 66 0 0.0 1.7 0.00 0.27 0.27 73 1024.0
20260905204039 67 345 0.0 1.7 0.00 0.27 0.27 73 1024.0
20260905203543 67 0 0.0 0.9 0.00 0.27 0.27 72 1024.0
20260905203105 67 0 0.0 1.7 0.00 0.27 0.27 72 1023.9
20260905202540 67 0 0.0 1.7 0.00 0.27 0.27 71 1023.9
20260905202044 67 0 0.0 1.7 0.00 0.27 0.27 71 1023.8
20260905201606 67 0 0.0 1.7 0.00 0.27 0.27 71 1023.9
20260905201040 67 0 0.0 1.7 0.00 0.27 0.27 71 1023.9
20260905200540 67 0 0.0 1.7 0.00 0.27 0.27 71 1023.7
20260905200100 67 0 0.0 2.6 0.00 0.27 0.27 71 1023.6
20260905195540 68 0 0.0 2.6 0.00 0.27 0.27 71 1023.7
20260905195039 68 289 0.0 2.6 0.00 0.27 0.27 71 1023.7
20260905194602 68 309 0.0 1.7 0.00 0.27 0.27 70 1023.6
20260905194039 68 0 0.0 2.6 0.00 0.27 0.27 70 1023.6
20260905193539 68 0 0.0 2.6 0.00 0.27 0.27 70 1023.5
20260905193101 68 0 0.0 2.6 0.00 0.27 0.27 70 1023.6
20260905192541 68 277 0.0 1.7 0.00 0.27 0.27 70 1023.5
20260905192040 68 0 0.0 1.7 0.00 0.27 0.27 70 1023.5
20260905191614 68 0 0.0 1.7 0.00 0.27 0.27 70 1023.4
20260905191041 68 257 0.0 1.7 0.00 0.27 0.27 70 1023.3
20260905190539 68 277 0.0 1.7 0.00 0.27 0.27 70 1023.2
20260905190105 68 0 0.0 1.7 0.00 0.27 0.27 70 1023.2
20260905185540 68 0 0.0 0.9 0.00 0.27 0.27 70 1023.1
20260905185039 68 0 0.0 0.9 0.00 0.27 0.27 69 1023.1
20260905184610 68 0 0.0 0.9 0.00 0.27 0.27 68 1023.0
20260905184041 68 225 0.0 0.9 0.00 0.27 0.27 68 1023.0
20260905183542 69 0 0.0 0.0 0.00 0.27 0.27 68 1022.9
20260905183101 69 0 0.0 0.0 0.00 0.27 0.27 66 1022.8
20260905182543 70 0 0.0 1.7 0.00 0.27 0.27 66 1022.9
20260905182043 70 0 0.0 1.7 0.00 0.27 0.27 66 1022.8
20260905181559 70 0 0.0 1.7 0.00 0.27 0.27 65 1022.8
20260905181041 70 238 0.0 4.3 0.00 0.27 0.27 64 1022.6
20260905180540 70 0 0.0 4.3 0.00 0.27 0.27 64 1022.5
20260905180055 70 261 0.9 4.3 0.00 0.27 0.27 64 1022.5
20260905175539 70 226 0.0 1.7 0.00 0.27 0.27 64 1022.4
20260905175040 71 222 0.0 1.7 0.00 0.27 0.27 64 1022.3
20260905174609 71 0 0.0 2.6 0.00 0.27 0.27 64 1022.3
20260905174040 71 0 0.0 2.6 0.00 0.27 0.27 63 1022.2
20260905173541 71 225 0.0 3.5 0.00 0.27 0.27 63 1022.1
20260905173110 71 0 0.9 3.5 0.00 0.27 0.27 63 1022.0
20260905172542 72 270 0.0 3.5 0.00 0.27 0.27 62 1022.0
20260905172040 72 13 0.9 6.1 0.00 0.27 0.27 62 1021.9
20260905171558 72 221 1.7 6.1 0.00 0.27 0.27 61 1021.9
20260905171040 72 230 0.0 4.3 0.00 0.27 0.27 62 1021.9
20260905170539 72 0 0.9 6.1 0.00 0.27 0.27 61 1022.0
20260905170107 72 296 1.7 7.0 0.00 0.27 0.27 61 1021.9
20260905165545 73 237 0.9 7.0 0.00 0.27 0.27 61 1021.9
20260905165039 73 219 1.7 7.8 0.00 0.27 0.27 60 1021.9
20260905164600 73 229 2.6 7.8 0.00 0.27 0.27 60 1021.9
20260905164039 73 226 1.7 7.0 0.00 0.27 0.27 60 1021.9
20260905163540 73 0 1.7 13.9 0.00 0.27 0.27 60 1021.9
20260905163107 73 210 1.7 13.9 0.00 0.27 0.27 60 1021.8
20260905162541 73 335 4.3 13.0 0.00 0.27 0.27 60 1021.8
20260905162041 74 211 1.7 7.0 0.00 0.27 0.27 59 1021.8
20260905161604 74 289 2.6 7.0 0.00 0.27 0.27 59 1021.7
20260905161041 74 0 0.9 7.8 0.00 0.27 0.27 59 1021.6
20260905160537 74 0 0.0 7.8 0.00 0.27 0.27 59 1021.6
20260905160059 73 288 1.7 7.8 0.00 0.27 0.27 59 1021.6
20260905155541 73 0 1.7 7.0 0.00 0.27 0.27 59 1021.7
20260905155040 74 296 0.9 10.4 0.00 0.27 0.27 59 1021.7
20260905154604 74 228 3.5 10.4 0.00 0.27 0.27 58 1021.6
20260905154041 74 269 2.6 10.4 0.00 0.27 0.27 57 1021.5
20260905153539 74 286 1.7 7.8 0.00 0.27 0.27 57 1021.5
20260905153107 74 238 1.7 7.0 0.00 0.27 0.27 58 1021.6
20260905152540 74 29 0.9 7.0 0.00 0.27 0.27 58 1021.6
20260905152039 75 243 1.7 7.8 0.00 0.27 0.27 57 1021.6
20260905151559 76 311 1.7 7.8 0.00 0.27 0.27 56 1021.6
20260905151044 76 207 0.9 7.8 0.00 0.27 0.27 56 1021.5
20260905150539 76 229 0.9 7.8 0.00 0.27 0.27 56 1021.5
20260905145538 75 216 2.6 7.0 0.00 0.27 0.27 56 1021.5
20260905145039 75 233 0.9 7.0 0.00 0.27 0.27 55 1021.5
20260905144601 75 212 1.7 7.0 0.00 0.27 0.27 56 1021.5
20260905144039 75 0 0.9 6.1 0.00 0.27 0.27 57 1021.6
20260905143540 75 0 1.7 7.8 0.00 0.27 0.27 57 1021.6
20260905143100 75 221 2.6 7.8 0.00 0.27 0.27 58 1021.6
20260905142541 74 0 0.0 7.8 0.00 0.27 0.27 59 1021.7
20260905142042 74 240 2.6 7.8 0.00 0.27 0.27 60 1021.8
20260905141612 74 9 1.7 8.7 0.00 0.27 0.27 60 1021.8
20260905141042 74 230 2.6 8.7 0.00 0.27 0.27 58 1021.9
20260905140539 75 215 2.6 8.7 0.00 0.27 0.27 58 1021.9
20260905140106 75 221 2.6 7.0 0.00 0.27 0.27 57 1021.9
20260905135539 75 281 0.9 7.8 0.00 0.27 0.27 59 1021.9
20260905135039 75 0 1.7 8.7 0.00 0.27 0.27 58 1022.0
20260905134607 74 201 1.7 8.7 0.00 0.27 0.27 59 1022.0
20260905134042 74 207 1.7 7.8 0.00 0.27 0.27 59 1022.1
20260905133540 74 250 0.9 8.7 0.00 0.27 0.27 59 1022.0
20260905133100 73 325 1.7 8.7 0.00 0.27 0.27 59 1022.0
20260905132539 74 239 2.6 8.7 0.00 0.27 0.27 57 1022.0
20260905132040 74 0 0.9 7.8 0.00 0.27 0.27 59 1022.0
20260905131559 73 21 1.7 7.8 0.00 0.27 0.27 59 1022.0
20260905131037 73 352 1.7 7.0 0.00 0.27 0.27 58 1022.0
20260905130540 73 182 1.7 7.0 0.00 0.27 0.27 60 1022.0
20260905130100 73 263 0.9 8.7 0.00 0.27 0.27 60 1022.1
20260905125540 73 227 2.6 10.4 0.00 0.27 0.27 60 1022.2
20260905125038 73 0 3.5 11.3 0.00 0.27 0.27 60 1022.3
20260905124559 73 165 1.7 11.3 0.00 0.27 0.27 60 1022.5
20260905124038 72 239 0.9 8.7 0.00 0.27 0.27 62 1022.5
20260905123537 72 246 2.6 8.7 0.00 0.27 0.27 61 1022.5
20260905123100 71 232 1.7 8.7 0.00 0.27 0.27 64 1022.6
20260905122541 71 19 1.7 11.3 0.00 0.27 0.27 64 1022.7
20260905122041 71 173 2.6 11.3 0.00 0.27 0.27 65 1022.7
20260905121557 71 199 2.6 10.4 0.00 0.27 0.27 65 1022.7
20260905121041 70 223 1.7 10.4 0.00 0.27 0.27 66 1022.7
20260905120544 70 220 2.6 8.7 0.00 0.27 0.27 67 1022.7
20260905120059 70 213 1.7 7.0 0.00 0.27 0.27 66 1022.7
20260905115543 70 344 1.7 9.6 0.00 0.27 0.27 66 1022.7
20260905115043 70 161 2.6 9.6 0.00 0.27 0.27 67 1022.7
20260905114626 70 189 1.7 7.8 0.00 0.27 0.27 68 1022.6
20260905114040 69 221 1.7 7.8 0.00 0.27 0.27 70 1022.7
20260905113541 69 248 1.7 7.8 0.00 0.27 0.27 67 1022.6
20260905113102 69 292 2.6 7.8 0.00 0.27 0.27 69 1022.7
20260905112540 68 0 0.9 7.0 0.00 0.27 0.27 71 1022.7
20260905112039 68 0 1.7 7.8 0.00 0.27 0.27 71 1022.6
20260905111557 67 213 2.6 7.8 0.00 0.27 0.27 72 1022.8
20260905111041 67 204 2.6 7.0 0.00 0.27 0.27 73 1022.7
20260905110541 67 339 1.7 7.8 0.00 0.27 0.27 73 1022.7
20260905110057 67 348 0.9 7.8 0.00 0.27 0.27 74 1022.7
20260905105539 67 325 0.9 7.8 0.00 0.27 0.27 74 1022.7
20260905105040 67 291 0.9 8.7 0.00 0.27 0.27 75 1022.7
20260905104559 67 298 0.9 8.7 0.00 0.27 0.27 76 1022.6
20260905104039 66 239 1.7 8.7 0.00 0.27 0.27 76 1022.7
20260905103542 66 275 2.6 8.7 0.00 0.27 0.27 76 1022.8
20260905103059 66 194 0.9 5.2 0.00 0.27 0.27 79 1022.6
20260905102539 65 346 0.9 7.8 0.00 0.27 0.27 79 1022.7
20260905102041 65 333 0.9 7.8 0.00 0.27 0.27 80 1022.7
20260905101600 64 198 1.7 7.0 0.00 0.27 0.27 81 1022.7
20260905101040 64 280 2.6 7.8 0.00 0.27 0.27 82 1022.8
20260905100539 64 346 1.7 7.8 0.00 0.27 0.27 83 1023.1
20260905100114 63 265 0.9 5.2 0.00 0.27 0.27 84 1023.2
20260905095539 63 0 0.9 5.2 0.00 0.27 0.27 86 1023.1
20260905095043 63 214 1.7 4.3 0.00 0.27 0.27 86 1023.1
20260905094622 63 345 0.0 3.5 0.00 0.27 0.27 87 1023.1
20260905094039 63 243 0.0 3.5 0.00 0.27 0.27 87 1023.0
20260905093540 62 0 0.0 3.5 0.00 0.27 0.27 88 1023.1
20260905093103 62 273 0.0 4.3 0.00 0.27 0.27 88 1023.1
20260905092541 62 211 0.9 4.3 0.00 0.27 0.27 89 1023.1
20260905092040 61 223 0.9 5.2 0.00 0.27 0.27 89 1023.1
20260905091615 61 236 1.7 5.2 0.00 0.27 0.27 89 1023.0
20260905091039 61 0 0.9 4.3 0.00 0.27 0.27 90 1023.2
20260905090540 61 0 0.0 3.5 0.00 0.27 0.27 91 1023.2
20260905090104 61 229 0.9 3.5 0.00 0.27 0.27 90 1023.2
20260905085540 61 224 0.0 2.6 0.00 0.27 0.27 90 1023.1
20260905085039 61 0 0.0 5.2 0.00 0.27 0.27 90 1023.0
20260905084604 61 0 0.9 5.2 0.00 0.27 0.27 90 1023.1
20260905084040 61 352 0.9 5.2 0.00 0.27 0.27 91 1023.1
20260905083540 61 219 1.7 5.2 0.00 0.27 0.27 90 1023.1
20260905083101 61 348 0.9 5.2 0.00 0.27 0.27 91 1023.1
20260905082539 61 246 0.9 5.2 0.00 0.27 0.27 91 1023.1
20260905082041 61 0 0.9 4.3 0.01 0.27 0.27 91 1023.2
20260905081555 61 236 0.9 4.3 0.01 0.27 0.27 91 1023.0
20260905081041 61 241 1.7 5.2 0.03 0.27 0.27 91 1023.1
20260905080539 61 229 0.9 6.1 0.04 0.27 0.27 91 1023.2
20260905080059 61 221 1.7 6.1 0.08 0.27 0.27 91 1023.1
20260905075540 61 200 1.7 6.1 0.11 0.27 0.27 91 1023.0
20260905075039 61 199 0.9 6.1 0.12 0.27 0.27 91 1022.9
20260905074602 61 0 0.9 7.8 0.13 0.27 0.27 91 1022.7
20260905074040 61 234 0.9 7.8 0.14 0.27 0.27 91 1022.7
20260905073539 61 206 1.7 7.8 0.14 0.27 0.27 90 1022.6
20260905073107 61 244 1.7 7.0 0.14 0.27 0.27 90 1022.3
20260905072542 61 0 0.0 3.5 0.14 0.26 0.26 91 1022.3
20260905072039 61 251 0.0 3.5 0.14 0.25 0.25 90 1022.3
20260905071555 61 0 0.9 3.5 0.14 0.25 0.25 90 1022.3
20260905071044 61 0 0.0 2.6 0.15 0.24 0.24 89 1022.3
20260905070539 61 0 0.0 6.1 0.14 0.22 0.22 89 1022.2
20260905070101 62 0 0.0 6.1 0.14 0.18 0.18 89 1022.1
20260905065542 62 266 0.0 4.3 0.11 0.16 0.16 89 1022.2
20260905065043 62 0 0.0 4.3 0.10 0.14 0.14 89 1022.2
20260905064611 62 0 0.0 4.3 0.09 0.14 0.14 89 1022.1
20260905064040 62 233 0.0 4.3 0.08 0.13 0.13 88 1022.1
20260905063543 62 223 0.0 2.6 0.07 0.12 0.12 88 1022.2
20260905063110 63 232 0.0 2.6 0.07 0.12 0.12 89 1021.9
20260905062539 63 0 0.0 2.6 0.07 0.12 0.12 89 1021.7
20260905062040 63 0 0.0 2.6 0.07 0.11 0.11 88 1021.5
20260905061615 63 227 0.0 2.6 0.06 0.10 0.10 89 1021.6
20260905061039 63 0 0.9 2.6 0.04 0.08 0.08 88 1021.9
20260905060539 63 0 0.0 1.7 0.03 0.07 0.07 88 1021.9
20260905060105 63 0 0.0 1.7 0.00 0.04 0.04 88 1021.4
20260905055539 63 0 0.0 0.9 0.00 0.04 0.04 88 1020.9
20260905055042 63 0 0.0 0.9 0.00 0.04 0.04 88 1020.8
20260905054601 63 0 0.0 0.9 0.00 0.04 0.04 87 1020.5
20260905054039 63 0 0.0 1.7 0.01 0.04 0.04 87 1020.5
20260905053539 63 0 0.0 2.6 0.03 0.04 0.04 86 1020.2
20260905053058 64 0 0.0 2.6 0.03 0.04 0.04 86 1020.2
20260905052542 64 0 0.0 2.6 0.03 0.04 0.04 86 1020.0
20260905052039 64 87 0.0 1.7 0.03 0.04 0.04 86 1020.0
20260905051608 64 0 0.0 1.7 0.03 0.03 0.03 84 1021.0
20260905051039 64 0 0.0 2.6 0.03 0.03 0.03 84 1020.9
20260905050539 64 0 0.0 3.5 0.03 0.03 0.03 83 1019.3
20260905050108 64 222 0.9 3.5 0.03 0.03 0.03 84 1018.9
20260905045538 64 0 0.0 2.6 0.03 0.03 0.03 83 1018.6
20260905045042 65 0 0.0 1.7 0.03 0.03 0.03 83 1018.6
20260905044602 65 0 0.0 2.6 0.03 0.03 0.03 81 1018.5
20260905044039 66 0 0.0 4.3 0.03 0.03 0.03 81 1018.6
20260905043539 66 57 0.0 8.7 0.01 0.01 0.01 79 1018.5
20260905043105 67 317 1.7 8.7 0.00 0.00 0.00 78 1018.3
20260905042544 68 5 2.6 8.7 0.00 0.00 0.00 75 1018.3
20260905042039 69 349 1.7 11.3 0.00 0.00 0.00 72 1018.1
20260905041603 70 126 0.9 11.3 0.00 0.00 0.00 70 1017.9
20260905041040 70 160 2.6 11.3 0.00 0.00 0.00 66 1017.8
20260905040540 70 338 0.9 5.2 0.00 0.00 0.00 66 1017.5
20260905035539 70 5 1.7 5.2 0.00 0.00 0.00 68 1016.9
20260905035039 69 333 1.7 4.3 0.00 0.00 0.00 70 1017.1
20260905034610 69 0 0.9 4.3 0.00 0.00 0.00 72 1016.6
20260905034039 68 331 0.0 2.6 0.00 0.00 0.00 73 1016.8
20260905033540 68 330 0.0 0.0 0.00 0.00 0.00 74 1016.9
20260905033109 68 0 0.0 0.0 0.00 0.00 0.00 75 1016.8
20260905032540 68 0 0.0 0.0 0.00 0.00 0.00 76 1016.6
20260905032039 68 0 0.0 0.0 0.00 0.00 0.00 76 1016.5
20260905031614 68 0 0.0 0.0 0.00 0.00 0.00 76 1016.3
20260905031040 68 0 0.0 0.0 0.00 0.00 0.00 76 1016.0
20260905030539 68 0 0.0 0.0 0.00 0.00 0.00 76 1016.1
20260905030058 68 0 0.0 0.0 0.00 0.00 0.00 76 1016.1
20260905025540 68 0 0.0 0.0 0.00 0.00 0.00 76 1016.2
20260905025045 68 0 0.0 0.0 0.00 0.00 0.00 75 1016.2
20260905024559 68 0 0.0 0.0 0.00 0.00 0.00 75 1016.1
20260905024040 68 0 0.0 0.0 0.00 0.00 0.00 75 1016.0
20260905023543 68 0 0.0 0.0 0.00 0.00 0.00 75 1016.0
20260905023129 68 0 0.0 0.0 0.00 0.00 0.00 75 1016.0
20260905022539 68 0 0.0 0.0 0.00 0.00 0.00 75 1015.8
20260905022040 68 0 0.0 0.0 0.00 0.00 0.00 75 1015.9
20260905021630 68 0 0.0 0.0 0.00 0.00 0.00 74 1015.9
20260905021039 68 0 0.0 0.0 0.00 0.00 0.00 74 1015.8
20260905020539 69 0 0.0 0.0 0.00 0.00 0.00 74 1015.6
20260905020103 69 0 0.0 0.0 0.00 0.00 0.00 73 1015.6
20260905015539 69 0 0.0 0.0 0.00 0.00 0.00 73 1015.5
20260905015041 69 0 0.0 0.0 0.00 0.00 0.00 73 1015.5
20260905014616 69 0 0.0 0.0 0.00 0.00 0.00 73 1015.4
20260905014041 69 0 0.0 0.0 0.00 0.00 0.00 73 1015.4
20260905013540 69 0 0.0 0.0 0.00 0.00 0.00 72 1015.3
20260905013104 69 0 0.0 0.0 0.00 0.00 0.00 72 1015.4
20260905012539 69 0 0.0 0.0 0.00 0.00 0.00 71 1015.4
20260905012039 69 0 0.0 0.0 0.00 0.00 0.00 71 1015.4
20260905011605 69 0 0.0 0.0 0.00 0.00 0.00 71 1015.4
20260905011039 69 0 0.0 0.0 0.00 0.00 0.00 71 1015.4
20260905010539 69 0 0.0 0.0 0.00 0.00 0.00 71 1015.3